DECAM EDBM-EDLP

Flight info

Callsign DECAM
Flight time 0h 59m
Altitude 8000
Route MAG1G MAG Z92 WRB WRB6H
Aircraft SR22/L-SDGRY/S

Departure

Time 2026-05-06 09:35
Airport Magdeburg City Airfield (EDBM)

Arrival

Time 2026-05-06 10:35
Airport Paderborn Lippstadt Airport (EDLP)
Time Latitude Longitude Altitude Speed Heading
2026-05-06 09:21 52.07669 11.62680 257 ft 0 kts
2026-05-06 09:31 52.07692 11.62683 257 ft 8 kts 351°
2026-05-06 09:31 52.07704 11.62559 261 ft 9 kts 272°
2026-05-06 09:32 52.07646 11.62513 261 ft 11 kts 218°
2026-05-06 09:32 52.07651 11.62340 261 ft 20 kts 275°
2026-05-06 09:32 52.07663 11.62112 261 ft 21 kts 274°
2026-05-06 09:32 52.07598 11.61964 262 ft 20 kts 195°
2026-05-06 09:33 52.07450 11.61899 270 ft 20 kts 192°
2026-05-06 09:33 52.07412 11.61880 271 ft 0 kts 197°
2026-05-06 09:34 52.07393 11.61871 272 ft 9 kts 194°
2026-05-06 09:34 52.07351 11.61897 273 ft 0 kts 86°
2026-05-06 09:35 52.07360 11.62370 266 ft 78 kts 87°
2026-05-06 09:35 52.07383 11.63400 429 ft 101 kts 85°
2026-05-06 09:35 52.07394 11.64619 713 ft 113 kts 86°
2026-05-06 09:35 52.07416 11.65934 1061 ft 117 kts 85°
2026-05-06 09:36 52.07448 11.67222 1526 ft 113 kts 86°
2026-05-06 09:36 52.07465 11.68511 1907 ft 114 kts 87°
2026-05-06 09:36 52.07485 11.69797 2286 ft 114 kts 88°
2026-05-06 09:36 52.07508 11.71089 2636 ft 116 kts 87°
2026-05-06 09:37 52.07531 11.72408 2980 ft 117 kts 87°
2026-05-06 09:37 52.07558 11.73753 3304 ft 120 kts 87°
2026-05-06 09:37 52.07582 11.75108 3668 ft 119 kts 87°
2026-05-06 09:37 52.07610 11.76459 4004 ft 122 kts 88°
2026-05-06 09:38 52.07639 11.77845 4358 ft 124 kts 88°
2026-05-06 09:38 52.07666 11.79263 4695 ft 126 kts 88°
2026-05-06 09:38 52.07697 11.80707 5030 ft 129 kts 89°
2026-05-06 09:38 52.07726 11.82185 5367 ft 132 kts 90°
2026-05-06 09:39 52.07755 11.83692 5710 ft 134 kts 89°
2026-05-06 09:39 52.07784 11.85222 6041 ft 137 kts 88°
2026-05-06 09:39 52.07749 11.86780 6342 ft 139 kts 109°
2026-05-06 09:39 52.07111 11.87848 6684 ft 133 kts 156°
2026-05-06 09:40 52.06297 11.88570 7032 ft 134 kts 154°
2026-05-06 09:40 52.05486 11.89342 7378 ft 136 kts 154°
2026-05-06 09:40 52.03861 11.90938 8046 ft 139 kts 154°
2026-05-06 09:41 52.03036 11.91769 8391 ft 140 kts 154°
2026-05-06 09:41 52.02206 11.92622 8739 ft 142 kts 154°
2026-05-06 09:41 52.01372 11.93494 9090 ft 143 kts 154°
2026-05-06 09:41 52.00479 11.94001 9419 ft 131 kts 195°
2026-05-06 09:42 51.99797 11.93252 9789 ft 118 kts 235°
2026-05-06 09:42 51.99381 11.92125 10114 ft 117 kts 252°
2026-05-06 09:42 51.99229 11.90831 10454 ft 117 kts 258°
2026-05-06 09:42 51.99071 11.89529 10786 ft 118 kts 257°
2026-05-06 09:43 51.98891 11.88247 11113 ft 118 kts 255°
2026-05-06 09:43 51.98694 11.86947 11449 ft 119 kts 254°
2026-05-06 09:43 51.98489 11.85640 11795 ft 120 kts 254°
2026-05-06 09:43 51.98279 11.84324 12144 ft 121 kts 253°
2026-05-06 09:44 51.98067 11.83000 12495 ft 121 kts 253°
2026-05-06 09:44 51.97853 11.81674 12849 ft 122 kts 253°
2026-05-06 09:44 51.97637 11.80335 13199 ft 124 kts 252°
2026-05-06 09:44 51.97415 11.78969 13537 ft 126 kts 252°
2026-05-06 09:45 51.97193 11.77592 13857 ft 127 kts 252°
2026-05-06 09:45 51.96968 11.76204 14175 ft 127 kts 252°
2026-05-06 09:45 51.96741 11.74809 14496 ft 128 kts 252°
2026-05-06 09:45 51.96514 11.73403 14822 ft 129 kts 252°
2026-05-06 09:46 51.96284 11.71991 15144 ft 130 kts 252°
2026-05-06 09:46 51.96056 11.70589 15468 ft 131 kts 251°
2026-05-06 09:46 51.95820 11.69141 15802 ft 132 kts 251°
2026-05-06 09:46 51.95586 11.67701 16134 ft 133 kts 251°
2026-05-06 09:47 51.95352 11.66264 16468 ft 133 kts 251°
2026-05-06 09:47 51.95113 11.64804 16810 ft 134 kts 251°
2026-05-06 09:47 51.94874 11.63334 17159 ft 135 kts 251°
2026-05-06 09:47 51.94634 11.61869 17548 ft 133 kts 250°
2026-05-06 09:48 51.94392 11.60390 17774 ft 143 kts 250°
2026-05-06 09:48 51.94121 11.58730 17788 ft 161 kts 251°
2026-05-06 09:48 51.93826 11.56900 17787 ft 174 kts 251°
2026-05-06 09:48 51.93510 11.54962 17787 ft 181 kts 251°
2026-05-06 09:49 51.93179 11.52958 17787 ft 186 kts 252°
2026-05-06 09:49 51.92852 11.50926 17784 ft 185 kts 252°
2026-05-06 09:49 51.92528 11.48943 17783 ft 184 kts 251°
2026-05-06 09:49 51.92197 11.46933 17784 ft 185 kts 251°
2026-05-06 09:50 51.91859 11.44919 17779 ft 184 kts 251°
2026-05-06 09:50 51.91529 11.42925 17777 ft 182 kts 251°
2026-05-06 09:50 51.91203 11.40955 17774 ft 180 kts 251°
2026-05-06 09:50 51.90880 11.39007 17771 ft 179 kts 251°
2026-05-06 09:51 51.90559 11.37071 17767 ft 177 kts 251°
2026-05-06 09:51 51.90239 11.35151 17765 ft 176 kts 251°
2026-05-06 09:51 51.89922 11.33241 17767 ft 175 kts 251°
2026-05-06 09:51 51.89606 11.31344 17768 ft 174 kts 251°
2026-05-06 09:52 51.89290 11.29450 17767 ft 174 kts 251°
2026-05-06 09:52 51.88974 11.27554 17768 ft 174 kts 251°
2026-05-06 09:52 51.88651 11.25647 17779 ft 179 kts 251°
2026-05-06 09:52 51.88319 11.23674 17795 ft 184 kts 252°
2026-05-06 09:53 51.87984 11.21653 17797 ft 187 kts 252°
2026-05-06 09:53 51.87646 11.19632 17797 ft 189 kts 252°
2026-05-06 09:53 51.87308 11.17590 17795 ft 188 kts 252°
2026-05-06 09:53 51.86965 11.15552 17798 ft 187 kts 252°
2026-05-06 09:54 51.86624 11.13524 17795 ft 187 kts 252°
2026-05-06 09:54 51.86281 11.11494 17797 ft 187 kts 252°
2026-05-06 09:54 51.85939 11.09463 17795 ft 187 kts 252°
2026-05-06 09:54 51.85594 11.07421 17793 ft 190 kts 252°
2026-05-06 09:55 51.85252 11.05333 17791 ft 193 kts 252°
2026-05-06 09:55 51.84894 11.03253 17794 ft 191 kts 251°
2026-05-06 09:55 51.84529 11.01178 17795 ft 192 kts 251°
2026-05-06 09:55 51.84179 10.99093 17796 ft 192 kts 252°
2026-05-06 09:56 51.83839 10.97044 17790 ft 190 kts 252°
2026-05-06 09:56 51.83486 10.94961 17790 ft 189 kts 252°
2026-05-06 09:56 51.83143 10.92945 17791 ft 188 kts 252°
2026-05-06 09:56 51.82794 10.90906 17787 ft 188 kts 252°
2026-05-06 09:57 51.82446 10.88862 17785 ft 189 kts 252°
2026-05-06 09:57 51.82095 10.86809 17782 ft 190 kts 252°
2026-05-06 09:57 51.81745 10.84758 17789 ft 190 kts 252°
2026-05-06 09:57 51.81391 10.82693 17784 ft 191 kts 252°
2026-05-06 09:58 51.81038 10.80630 17789 ft 190 kts 251°
2026-05-06 09:58 51.80684 10.78571 17784 ft 189 kts 252°
2026-05-06 09:58 51.80333 10.76529 17784 ft 188 kts 251°
2026-05-06 09:58 51.79989 10.74520 17783 ft 188 kts 251°
2026-05-06 09:59 51.79638 10.72488 17789 ft 188 kts 251°
2026-05-06 09:59 51.79287 10.70456 17780 ft 187 kts 251°
2026-05-06 09:59 51.78940 10.68432 17779 ft 186 kts 251°
2026-05-06 09:59 51.78593 10.66422 17775 ft 186 kts 251°
2026-05-06 10:00 51.78243 10.64404 17768 ft 186 kts 251°
2026-05-06 10:00 51.77895 10.62390 17777 ft 187 kts 251°
2026-05-06 10:00 51.77544 10.60371 17778 ft 187 kts 251°
2026-05-06 10:00 51.77195 10.58353 17782 ft 186 kts 251°
2026-05-06 10:01 51.76844 10.56335 17781 ft 186 kts 251°
2026-05-06 10:01 51.76493 10.54317 17782 ft 187 kts 251°
2026-05-06 10:01 51.76141 10.52288 17775 ft 187 kts 251°
2026-05-06 10:01 51.75792 10.50295 17772 ft 187 kts 251°
2026-05-06 10:02 51.75433 10.48282 17777 ft 186 kts 251°
2026-05-06 10:02 51.75073 10.46268 17771 ft 186 kts 251°
2026-05-06 10:02 51.74720 10.44253 17766 ft 186 kts 251°
2026-05-06 10:02 51.74369 10.42243 17766 ft 186 kts 251°
2026-05-06 10:03 51.74016 10.40228 17766 ft 186 kts 251°
2026-05-06 10:03 51.73663 10.38214 17762 ft 187 kts 251°
2026-05-06 10:03 51.73309 10.36198 17763 ft 186 kts 251°
2026-05-06 10:03 51.72954 10.34181 17758 ft 186 kts 251°
2026-05-06 10:04 51.72600 10.32175 17758 ft 186 kts 251°
2026-05-06 10:04 51.72247 10.30163 17758 ft 187 kts 251°
2026-05-06 10:04 51.71897 10.28176 17754 ft 187 kts 251°
2026-05-06 10:04 51.71542 10.26159 17759 ft 186 kts 251°
2026-05-06 10:05 51.71186 10.24152 17754 ft 186 kts 251°
2026-05-06 10:05 51.70831 10.22142 17756 ft 187 kts 251°
2026-05-06 10:05 51.70471 10.20122 17760 ft 188 kts 251°
2026-05-06 10:05 51.70111 10.18093 17760 ft 188 kts 251°
2026-05-06 10:06 51.69751 10.16060 17762 ft 189 kts 251°
2026-05-06 10:06 51.69391 10.14026 17763 ft 189 kts 251°
2026-05-06 10:06 51.69029 10.11993 17761 ft 188 kts 251°
2026-05-06 10:06 51.68666 10.09956 17770 ft 189 kts 251°
2026-05-06 10:07 51.68302 10.07913 17768 ft 190 kts 251°
2026-05-06 10:07 51.67938 10.05885 17760 ft 191 kts 251°
2026-05-06 10:07 51.67570 10.03816 17770 ft 192 kts 251°
2026-05-06 10:07 51.67200 10.01741 17770 ft 192 kts 251°
2026-05-06 10:08 51.66828 9.99673 17767 ft 192 kts 251°
2026-05-06 10:08 51.66457 9.97612 17764 ft 191 kts 250°
2026-05-06 10:08 51.66084 9.95538 17595 ft 197 kts 251°
2026-05-06 10:08 51.65710 9.93406 17326 ft 196 kts 251°
2026-05-06 10:09 51.65345 9.91327 17079 ft 191 kts 251°
2026-05-06 10:09 51.64975 9.89292 16837 ft 188 kts 251°
2026-05-06 10:09 51.64613 9.87289 16594 ft 185 kts 251°
2026-05-06 10:09 51.64254 9.85311 16347 ft 183 kts 251°
2026-05-06 10:10 51.63899 9.83350 16113 ft 181 kts 250°
2026-05-06 10:10 51.63542 9.81396 15869 ft 184 kts 250°
2026-05-06 10:10 51.63169 9.79374 15608 ft 192 kts 250°
2026-05-06 10:10 51.62794 9.77305 15341 ft 197 kts 251°
2026-05-06 10:11 51.62414 9.75184 15076 ft 197 kts 251°
2026-05-06 10:11 51.62034 9.73074 14820 ft 194 kts 251°
2026-05-06 10:11 51.61660 9.71006 14569 ft 191 kts 251°
2026-05-06 10:11 51.61286 9.68965 14321 ft 190 kts 251°
2026-05-06 10:12 51.60910 9.66906 14067 ft 192 kts 251°
2026-05-06 10:12 51.60528 9.64836 13807 ft 193 kts 251°
2026-05-06 10:12 51.60154 9.62765 13546 ft 193 kts 251°
2026-05-06 10:12 51.59776 9.60700 13279 ft 192 kts 251°
2026-05-06 10:13 51.59399 9.58648 13031 ft 190 kts 251°
2026-05-06 10:13 51.59031 9.56647 12788 ft 187 kts 251°
2026-05-06 10:13 51.58667 9.54654 12538 ft 184 kts 251°
2026-05-06 10:13 51.58305 9.52694 12315 ft 182 kts 251°
2026-05-06 10:14 51.57944 9.50743 12070 ft 182 kts 251°
2026-05-06 10:14 51.57587 9.48795 11824 ft 181 kts 251°
2026-05-06 10:14 51.57229 9.46854 11588 ft 181 kts 251°
2026-05-06 10:14 51.56991 9.45570 11433 ft 180 kts 251°
2026-05-06 10:15 51.56712 9.43605 11180 ft 183 kts 265°
2026-05-06 10:15 51.56872 9.41558 10944 ft 185 kts 275°
2026-05-06 10:15 51.57057 9.39518 10715 ft 184 kts 273°
2026-05-06 10:15 51.57231 9.37482 10553 ft 184 kts 274°
2026-05-06 10:16 51.57366 9.35447 10334 ft 183 kts 271°
2026-05-06 10:16 51.57494 9.33415 10092 ft 183 kts 272°
2026-05-06 10:16 51.57640 9.31384 9879 ft 183 kts 273°
2026-05-06 10:16 51.57788 9.29356 9701 ft 182 kts 273°
2026-05-06 10:17 51.57928 9.27359 9518 ft 182 kts 272°
2026-05-06 10:17 51.58068 9.25342 9302 ft 181 kts 273°
2026-05-06 10:17 51.58216 9.23330 9076 ft 181 kts 273°
2026-05-06 10:17 51.58360 9.21326 8842 ft 180 kts 272°
2026-05-06 10:18 51.58503 9.19324 8609 ft 180 kts 272°
2026-05-06 10:18 51.58648 9.17329 8423 ft 179 kts 272°
2026-05-06 10:18 51.58794 9.15348 8267 ft 178 kts 273°
2026-05-06 10:18 51.58939 9.13377 8115 ft 177 kts 272°
2026-05-06 10:19 51.59068 9.11427 7921 ft 177 kts 272°
2026-05-06 10:19 51.59207 9.09456 7690 ft 177 kts 272°
2026-05-06 10:19 51.59344 9.07493 7466 ft 176 kts 272°
2026-05-06 10:19 51.59484 9.05540 7240 ft 176 kts 272°
2026-05-06 10:20 51.59621 9.03590 7026 ft 175 kts 272°
2026-05-06 10:20 51.59761 9.01658 6785 ft 174 kts 272°
2026-05-06 10:20 51.59895 8.99728 6559 ft 173 kts 272°
2026-05-06 10:20 51.60030 8.97804 6340 ft 173 kts 271°
2026-05-06 10:21 51.60162 8.95878 6124 ft 173 kts 272°
2026-05-06 10:21 51.60296 8.93961 5903 ft 172 kts 272°
2026-05-06 10:21 51.60427 8.92076 5691 ft 171 kts 272°
2026-05-06 10:21 51.60560 8.90167 5485 ft 171 kts 272°
2026-05-06 10:22 51.60693 8.88264 5263 ft 171 kts 272°
2026-05-06 10:22 51.60823 8.86360 5043 ft 171 kts 273°
2026-05-06 10:22 51.60954 8.84463 4825 ft 170 kts 272°
2026-05-06 10:22 51.61085 8.82566 4616 ft 170 kts 273°
2026-05-06 10:23 51.61214 8.80669 4387 ft 170 kts 273°
2026-05-06 10:23 51.61342 8.78781 4160 ft 170 kts 274°
2026-05-06 10:23 51.61470 8.76905 4000 ft 166 kts 274°
2026-05-06 10:23 51.61590 8.75137 3993 ft 156 kts 274°
2026-05-06 10:24 51.61703 8.73443 3988 ft 149 kts 273°
2026-05-06 10:24 51.61812 8.71783 3989 ft 151 kts 273°
2026-05-06 10:24 51.61923 8.70061 3993 ft 157 kts 275°
2026-05-06 10:24 51.62046 8.68289 3998 ft 161 kts 275°
2026-05-06 10:25 51.62170 8.66485 4002 ft 163 kts 275°
2026-05-06 10:25 51.62281 8.64661 4006 ft 164 kts 270°
2026-05-06 10:25 51.62054 8.62880 4005 ft 165 kts 248°
2026-05-06 10:25 51.61574 8.61204 4006 ft 165 kts 246°
2026-05-06 10:26 51.61111 8.59522 4004 ft 164 kts 246°
2026-05-06 10:26 51.60648 8.57848 4005 ft 163 kts 246°
2026-05-06 10:26 51.60192 8.56201 4003 ft 163 kts 246°
2026-05-06 10:26 51.59725 8.54516 4004 ft 163 kts 246°
2026-05-06 10:27 51.59266 8.52873 4004 ft 163 kts 246°
2026-05-06 10:27 51.58801 8.51208 4002 ft 163 kts 246°
2026-05-06 10:27 51.58337 8.49539 4004 ft 164 kts 246°
2026-05-06 10:27 51.57869 8.47865 4005 ft 164 kts 246°
2026-05-06 10:28 51.57404 8.46187 4005 ft 165 kts 246°
2026-05-06 10:28 51.56932 8.44502 4006 ft 165 kts 246°
2026-05-06 10:28 51.56464 8.42823 3987 ft 162 kts 246°
2026-05-06 10:28 51.56001 8.41144 3730 ft 166 kts 246°
2026-05-06 10:29 51.55532 8.39451 3543 ft 165 kts 246°
2026-05-06 10:29 51.55065 8.37774 3362 ft 164 kts 246°
2026-05-06 10:29 51.54377 8.36338 3145 ft 166 kts 218°
2026-05-06 10:29 51.53269 8.35901 3009 ft 167 kts 175°
2026-05-06 10:30 51.52244 8.36711 3001 ft 169 kts 135°
2026-05-06 10:30 51.51783 8.38416 3000 ft 170 kts 93°
2026-05-06 10:30 51.52111 8.40203 3000 ft 170 kts 52°
2026-05-06 10:30 51.52882 8.41616 3003 ft 168 kts 36°
2026-05-06 10:31 51.53717 8.42889 2999 ft 170 kts 53°
2026-05-06 10:31 51.54378 8.44467 3018 ft 170 kts 54°
2026-05-06 10:31 51.55058 8.46070 2853 ft 176 kts 55°
2026-05-06 10:31 51.55717 8.47712 2623 ft 172 kts 56°
2026-05-06 10:32 51.56374 8.49302 2392 ft 170 kts 54°
2026-05-06 10:32 51.57011 8.50864 2159 ft 160 kts 56°
2026-05-06 10:32 51.57589 8.52293 1941 ft 146 kts 54°
2026-05-06 10:32 51.58127 8.53600 1742 ft 135 kts 55°
2026-05-06 10:33 51.58598 8.54751 1557 ft 113 kts 52°
2026-05-06 10:33 51.59001 8.55736 1400 ft 102 kts 52°
2026-05-06 10:33 51.59408 8.56723 1267 ft 109 kts 52°
2026-05-06 10:33 51.59830 8.57769 1119 ft 113 kts 54°
2026-05-06 10:34 51.60270 8.58836 970 ft 115 kts 51°
2026-05-06 10:34 51.60712 8.59910 804 ft 112 kts 53°
2026-05-06 10:34 51.61103 8.60890 711 ft 95 kts 51°
2026-05-06 10:34 51.61420 8.61659 704 ft 63 kts 57°
2026-05-06 10:35 51.61608 8.62122 691 ft 46 kts 56°
2026-05-06 10:35 51.61775 8.62536 685 ft 43 kts 60°
2026-05-06 10:35 51.61911 8.62884 679 ft 25 kts 76°
2026-05-06 10:35 51.61852 8.63072 678 ft 18 kts 167°
2026-05-06 10:36 51.61755 8.62961 680 ft 18 kts 236°
2026-05-06 10:36 51.61688 8.62799 686 ft 17 kts 235°
2026-05-06 10:36 51.61621 8.62638 692 ft 18 kts 237°
2026-05-06 10:36 51.61554 8.62472 699 ft 18 kts 236°
2026-05-06 10:37 51.61485 8.62308 705 ft 18 kts 236°
2026-05-06 10:37 51.61416 8.62150 711 ft 17 kts 225°
2026-05-06 10:37 51.61352 8.61978 713 ft 19 kts 236°
2026-05-06 10:37 51.61273 8.61783 713 ft 22 kts 237°
2026-05-06 10:38 51.61184 8.61566 715 ft 23 kts 237°
2026-05-06 10:38 51.61101 8.61532 718 ft 17 kts 146°
2026-05-06 10:38 51.61022 8.61618 726 ft 13 kts 147°
2026-05-06 10:38 51.60974 8.61690 726 ft 7 kts 104°
2026-05-06 10:39 51.60976 8.61701 726 ft 0 kts 49°